Simultaneous Nadir Overpasses (SNOs) Predictions

Prediction of SNOs between FY3D and AQUA Satellite Orbit:

Table of predicted SNOs for the next 14.0 days since TLE Epoch: 10/31/2020
Index Date (FY3D) Time (FY3D) Lat,Lon (FY3D) SZA (FY3D ) Date (AQUA) Time (AQUA) Lat,Lon (AQUA) SZA (AQUA ) Distance(km) Time Diff (sec)
1 11/02/2020 04:06:47 48.51, -28.62 134.72 11/02/2020 04:07:30 48.51, -28.68 134.66 4.26 43
2 11/02/2020 04:54:58 -57.46, 143.25 52.44 11/02/2020 04:54:27 -57.46, 143.24 52.37 0.92 31
3 11/04/2020 20:23:02 48.91, 87.47 135.10 11/04/2020 20:23:52 48.93, 87.37 135.03 7.82 50
4 11/04/2020 21:11:49 -55.82,-101.80 50.35 11/04/2020 21:11:24 -55.82,-101.80 50.31 0.53 25
5 11/07/2020 12:39:17 49.32,-156.43 135.46 11/07/2020 12:40:14 49.34,-156.59 135.40 11.40 57
6 11/07/2020 13:28:39 -54.23, 13.24 48.36 11/07/2020 13:28:20 -54.23, 13.26 48.33 1.48 19
7 11/07/2020 14:04:12 69.41, -32.02 85.85 11/07/2020 14:03:00 69.81, -29.83 86.29 95.45 72
8 11/10/2020 04:55:31 49.72, -40.34 135.81 11/10/2020 04:56:35 49.74, -40.54 135.77 14.95 64
9 11/10/2020 05:44:58 -54.34, 129.22 47.77 11/10/2020 05:44:46 -54.33, 129.19 47.72 1.88 12
10 11/10/2020 06:25:25 81.16, 26.62 101.81 11/10/2020 06:24:12 81.73, 27.24 102.14 64.65 73
11 11/12/2020 21:11:46 50.11, 75.76 136.15 11/12/2020 21:12:57 50.13, 75.50 136.12 18.53 71
12 11/12/2020 22:01:43 -53.02,-115.55 46.07 11/12/2020 22:01:37 -53.02,-115.57 46.04 1.77 6
